GALAXY 33 (G-33)

Last updated on Wed Sep 09 2026 00:03:03 GMT+0000 (Coordinated Universal Time)

1 54026U 22128A 26251.50392000 .00000000 00000+0 00000+0 0 9995 2 54026 0.0239 132.2291 0001867 39.5838 224.1721 1.00271020 14570
UTC large
Height (km)
Speed (km/s)
/
Latitude / Longitude
Inclination (degrees)
Orbital Period (minutes)
Azimuth
Elevation
Range (km)
Doppler Factor

Next 0 passes for location: London (51.5072 / 0.1276)

No passes found over London.
GALAXY 33 (G-33)